Regional Weather Roundup
Issued by NWS

Home | Current Version | Previous Version | Graphics & Text | Print | Product List | Glossary On
Versions: 1 2 3 4 5 6 7 8 9 10 11 12 13 14 15 16 17 18 19 20 21 22 23 24 25 26 27 28 29 30 31 32 33 34 35 36 37 38 39 40 41 42 43 44 45 46 47 48 49 50
000
ASUS43 KLSX 281207
RWRMO

WEATHER SUMMARY FOR MISSOURI
NATIONAL WEATHER SERVICE SPRINGFIELD MO
700 AM CDT MON JUL 28 2014

NOTE: "FAIR" INDICATES FEW OR NO CLOUDS BELOW 12,000 FEET WITH NO
       SIGNIFICANT WEATHER AND/OR OBSTRUCTIONS TO VISIBILITY.
       CURRENT SKY AND/OR WEATHER CONDITIONS ARE NOT AVAILABLE FOR
       CHILLICOTHE AND FARMINGTON.

MOZ001>031-035>038-043-044-053-054-281300-
...NORTHERN AND WESTERN MISSOURI...

CITY           SKY/WX    TMP DP  RH WIND       PRES   REMARKS
KANSAS CTY INT PTCLDY    60  57  89 NW7       30.19R
6HR MIN TEMP:  59; 6HR MAX TEMP:  65;

KANSAS C DTWN  CLEAR     64  58  80 NW5       30.18R
6HR MIN TEMP:  63; 6HR MAX TEMP:  71;

LEE`S SUMMIT   CLEAR     62  57  83 CALM      30.19R
6HR MIN TEMP:  60; 6HR MAX TEMP:  69;

ST JOSEPH      CLEAR     59  57  93 N6        30.20R
6HR MIN TEMP:  57; 6HR MAX TEMP:  63;

CHILLICOTHE      N/A     63  57  81 VRB5      30.17R
6HR MIN TEMP:  63; 6HR MAX TEMP:  67;

KIRKSVILLE     MOCLDY    61  58  90 NW7       30.14R
6HR MIN TEMP:  60; 6HR MAX TEMP:  63;


$$
MOZ066>068-077>081-088>096-101>105-281300-
...SOUTHWEST MISSOURI...

CITY           SKY/WX    TMP DP  RH WIND       PRES   REMARKS
SPRINGFIELD    CLEAR     61  57  87 N7        30.16R
6HR MIN TEMP:  59; 6HR MAX TEMP:  70;

JOPLIN         CLEAR     60  58  92 N6        30.18R
6HR MIN TEMP:  60; 6HR MAX TEMP:  70;


$$
MOZ032>034-039>042-045>050-055>058-069>072-281300-
...CENTRAL MISSOURI...

CITY           SKY/WX    TMP DP  RH WIND       PRES   REMARKS
COLUMBIA       CLEAR     62  58  86 NW8       30.12R
6HR MIN TEMP:  60; 6HR MAX TEMP:  67;

JEFFERSON CITY CLEAR     64  58  80 NW5       30.11R
6HR MIN TEMP:  63; 6HR MAX TEMP:  70;

ROLLA          CLEAR     61  56  83 NW8       30.10R
6HR MIN TEMP:  60; 6HR MAX TEMP:  68;

SEDALIA        CLEAR     62  57  83 NW6       30.15R
6HR MIN TEMP:  61; 6HR MAX TEMP:  66;

WHITEMAN AFB   CLEAR     62  49  63 NW7       30.15R
OSAGE BEACH    CLEAR     64  55  72 NW5       30.13R

$$
MOZ051-052-059>065-281300-
...EAST CENTRAL MISSOURI...

CITY           SKY/WX    TMP DP  RH WIND       PRES   REMARKS
ST LOUIS INTL  SUNNY     68  60  75 NW8       30.07R
6HR MIN TEMP:  65; 6HR MAX TEMP:  72;

SPIRIT OF STL  CLEAR     65  59  81 NW5       30.06R
6HR MIN TEMP:  64; 6HR MAX TEMP:  70;

ST CHARLES     SUNNY     66  60  81 NW9       30.06R
6HR MIN TEMP:  65; 6HR MAX TEMP:  71;


$$
MOZ072>076-082>087-097>100-106>115-281300-
...SOUTH CENTRAL AND SOUTHEAST MISSOURI...

CITY           SKY/WX    TMP DP  RH WIND       PRES   REMARKS
CAPE GIRARDEAU SUNNY     64  61  90 W5        30.05R
6HR MIN TEMP:  62; 6HR MAX TEMP:  74;

FARMINGTON     CLEAR     63  57  82 NW6       30.10R
6HR MIN TEMP:  63; 6HR MAX TEMP:  70;

POPLAR BLUFF   CLEAR     66  58  75 W6        30.06R
6HR MIN TEMP:  63; 6HR MAX TEMP:  74;

WEST PLAINS    CLEAR     64  57  78 NW6       30.14R
6HR MIN TEMP:  62; 6HR MAX TEMP:  72;


$$



USA.gov is the U.S. government's official web portal to all federal, state and local government web resources and services.